Weather History for KLCK - October, 2013

Change the Weather History Date:

Saturday, October 5, 2013

  Actual Average Record
Temperature  
Mean Temperature 74 °F -  
Max Temperature 84 °F 68 °F 89 °F (2007)
Min Temperature 63 °F 46 °F 37 °F (1996)
Cooling Degree Days 8    
Growing Degree Days 24 (Base 50)    
Moisture  
Dew Point 63 °F    
Average Humidity 74    
Maximum Humidity 87    
Minimum Humidity 47    
Precipitation  
Precipitation 0.00 in - - ()
Sea Level Pressure  
Sea Level Pressure 30.03 in    
Wind  
Wind Speed 5 mph (SSW)    
Max Wind Speed 17 mph    
Max Gust Speed 23 mph    
Visibility 10 miles    
Events Rain    
Averages and records for this station are not official NWS values.
T = Trace of Precipitation, MM = Missing Value Source: NWS Daily Summary

Daily Weather History Graph

Daily Weather History Graph

Search for Another Location

Airport or City:

Trip Planner

Search our weather history database for the weather conditions in past years. The results will help you decide how hot, cold, wet, or windy it might be!

Date:

Astronomy

Oct. 05, 2013 Rise Set
Actual Time 7:32 AM EDT 7:07 PM EDT
Civil Twilight 7:05 AM EDT 7:34 PM EDT
Nautical Twilight 6:33 AM EDT 8:05 PM EDT
Astronomical Twilight 6:02 AM EDT 8:36 PM EDT
Moon 8:10 AM EDT (10/5) 7:25 PM EDT (10/5)
Length of Visible Light 12h 29m
Length of Day
11h 35m
New Moon, 0% of the Moon is Illuminated
Oct 5
New Moon
Oct 11
First Quarter
Oct 18
Full
Oct 26
Last Quarter
Nov 3
New

Hourly Weather History & Observations

Time (EDT) Temp. Heat Index Dew Point Humidity Pressure Visibility Wind Dir Wind Speed Gust Speed Precip Events Conditions
12:15 AM 67.3 °F - 61.7 °F 82% 30.08 in 10.0 mi Calm Calm - N/A   Clear
12:35 AM 66.2 °F - 61.3 °F 84% 30.08 in 7.0 mi Calm Calm - N/A   Clear
12:55 AM 64.4 °F - 59.9 °F 85% 30.07 in 5.0 mi SSE 3.5 mph - N/A   Clear
1:15 AM 63.5 °F - 59.4 °F 86% 30.06 in 5.0 mi SSE 4.6 mph - N/A   Clear
1:35 AM 63.7 °F - 59.7 °F 87% 30.06 in 7.0 mi South 5.8 mph - N/A   Clear
1:55 AM 64.4 °F - 60.3 °F 86% 30.07 in 10.0 mi South 4.6 mph - N/A   Clear
2:15 AM 64.8 °F - 60.1 °F 85% 30.07 in 10.0 mi South 5.8 mph - N/A   Clear
2:35 AM 65.8 °F - 61.0 °F 84% 30.07 in 10.0 mi South 5.8 mph - N/A   Clear
2:55 AM 66.2 °F - 60.8 °F 83% 30.07 in 10.0 mi SSW 4.6 mph - N/A   Clear
3:15 AM 65.8 °F - 60.6 °F 83% 30.06 in 10.0 mi SSW 5.8 mph - N/A   Clear
3:35 AM 66.2 °F - 60.8 °F 83% 30.06 in 10.0 mi SSW 4.6 mph - N/A   Scattered Clouds
3:55 AM 65.5 °F - 60.4 °F 84% 30.06 in 10.0 mi SSW 3.5 mph - N/A   Scattered Clouds
4:15 AM 65.1 °F - 60.1 °F 84% 30.07 in 10.0 mi SW 3.5 mph - N/A   Mostly Cloudy
4:35 AM 64.6 °F - 59.9 °F 85% 30.06 in 7.0 mi SW 3.5 mph - N/A   Mostly Cloudy
4:55 AM 64.6 °F - 60.1 °F 85% 30.06 in 7.0 mi SSW 4.6 mph - N/A   Overcast
5:15 AM 65.7 °F - 60.8 °F 84% 30.06 in 10.0 mi SSW 5.8 mph - N/A   Mostly Cloudy
5:35 AM 65.7 °F - 60.8 °F 84% 30.06 in 10.0 mi Calm Calm - N/A   Scattered Clouds
5:55 AM 66.0 °F - 61.0 °F 84% 30.07 in 10.0 mi South 3.5 mph - N/A   Scattered Clouds
6:15 AM 66.2 °F - 60.8 °F 83% 30.07 in 10.0 mi South 3.5 mph - N/A   Scattered Clouds
6:35 AM 65.5 °F - 60.4 °F 84% 30.07 in 10.0 mi South 4.6 mph - N/A   Mostly Cloudy
6:55 AM 64.9 °F - 60.1 °F 84% 30.06 in 7.0 mi SSE 3.5 mph - N/A   Scattered Clouds
7:15 AM 64.8 °F - 60.1 °F 85% 30.07 in 10.0 mi South 4.6 mph - N/A   Clear
7:35 AM 64.6 °F - 59.9 °F 85% 30.07 in 7.0 mi SSE 4.6 mph - N/A   Clear
7:55 AM 65.1 °F - 60.6 °F 85% 30.07 in 10.0 mi South 4.6 mph - N/A   Mostly Cloudy
8:15 AM 66.4 °F - 61.5 °F 84% 30.07 in 10.0 mi South 3.5 mph - N/A   Overcast
8:35 AM 67.3 °F - 62.1 °F 83% 30.07 in 10.0 mi South 5.8 mph - N/A   Mostly Cloudy
8:55 AM 68.2 °F - 62.6 °F 82% 30.07 in 10.0 mi South 5.8 mph - N/A   Mostly Cloudy
9:15 AM 69.3 °F - 63.3 °F 81% 30.07 in 10.0 mi South 5.8 mph - N/A   Overcast
9:35 AM 71.1 °F - 64.0 °F 78% 30.07 in 10.0 mi South 5.8 mph - N/A   Mostly Cloudy
9:55 AM 73.8 °F - 64.2 °F 72% 30.07 in 10.0 mi SSW 6.9 mph - N/A   Mostly Cloudy
10:15 AM 74.3 °F - 64.2 °F 71% 30.06 in 10.0 mi South 5.8 mph - N/A   Overcast
10:35 AM 74.8 °F - 64.2 °F 69% 30.06 in 10.0 mi SSW 10.4 mph - N/A   Mostly Cloudy
10:55 AM 77.0 °F - 64.4 °F 65% 30.06 in 10.0 mi SSW 9.2 mph - N/A   Scattered Clouds
11:15 AM 78.1 °F - 64.2 °F 62% 30.06 in 10.0 mi SSW 6.9 mph - N/A   Scattered Clouds
11:35 AM 78.3 °F - 64.2 °F 62% 30.06 in 10.0 mi South 8.1 mph - N/A   Overcast
11:55 AM 76.6 °F - 64.9 °F 67% 30.06 in 10.0 mi South 6.9 mph - N/A Rain Light Rain
12:15 PM 74.8 °F - 66.2 °F 74% 30.05 in 10.0 mi South 5.8 mph - N/A   Overcast
12:35 PM 75.6 °F - 66.9 °F 74% 30.04 in 10.0 mi South 5.8 mph - N/A   Overcast
12:55 PM 79.3 °F - 66.7 °F 65% 30.03 in 10.0 mi South 6.9 mph - N/A   Scattered Clouds
1:15 PM 81.0 °F 83.0 °F 65.8 °F 60% 30.03 in 10.0 mi South 10.4 mph 16.1 mph N/A   Mostly Cloudy
1:35 PM 78.4 °F - 66.7 °F 67% 30.02 in 7.0 mi WSW 5.8 mph - N/A   Overcast
1:55 PM 80.2 °F 82.8 °F 67.8 °F 66% 30.01 in 10.0 mi SW 12.7 mph 18.4 mph N/A   Mostly Cloudy
2:15 PM 81.7 °F 83.3 °F 64.8 °F 56% 30.00 in 10.0 mi SW 15.0 mph - N/A   Mostly Cloudy
2:35 PM 81.5 °F 83.1 °F 64.6 °F 56% 29.99 in 10.0 mi WSW 13.8 mph 17.3 mph N/A   Mostly Cloudy
2:55 PM 82.6 °F 83.8 °F 63.5 °F 52% 29.99 in 10.0 mi SW 15.0 mph 19.6 mph N/A   Scattered Clouds
3:15 PM 83.7 °F 84.5 °F 62.6 °F 49% 29.99 in 10.0 mi SSW 17.3 mph 23.0 mph N/A   Scattered Clouds
3:35 PM 84.0 °F 84.5 °F 61.7 °F 47% 29.99 in 10.0 mi SSW 11.5 mph 18.4 mph N/A   Mostly Cloudy
3:55 PM 82.6 °F 83.4 °F 62.1 °F 50% 29.98 in 10.0 mi SSW 12.7 mph - N/A   Mostly Cloudy
4:15 PM 82.0 °F 83.0 °F 62.2 °F 51% 29.98 in 10.0 mi SSW 15.0 mph 20.7 mph N/A   Mostly Cloudy
4:35 PM 81.7 °F 82.7 °F 62.6 °F 52% 29.97 in 10.0 mi SSW 15.0 mph - N/A   Scattered Clouds
4:55 PM 81.0 °F 82.2 °F 63.0 °F 54% 29.97 in 10.0 mi South 11.5 mph - N/A   Scattered Clouds
5:15 PM 80.1 °F 81.6 °F 63.5 °F 57% 29.98 in 10.0 mi South 11.5 mph - N/A   Mostly Cloudy
5:35 PM 79.3 °F - 64.4 °F 60% 29.97 in 10.0 mi South 9.2 mph - N/A   Overcast
5:55 PM 79.5 °F - 64.4 °F 60% 29.97 in 10.0 mi SSW 13.8 mph 19.6 mph N/A   Mostly Cloudy
6:15 PM 79.2 °F - 64.4 °F 60% 29.98 in 10.0 mi SSW 9.2 mph - N/A   Mostly Cloudy
6:35 PM 78.4 °F - 64.6 °F 62% 29.97 in 10.0 mi SSW 11.5 mph - N/A   Scattered Clouds
6:55 PM 77.7 °F - 64.6 °F 64% 29.98 in 10.0 mi SSW 8.1 mph - N/A   Clear
7:15 PM 76.6 °F - 64.8 °F 67% 29.98 in 10.0 mi SSW 12.7 mph - N/A   Clear
7:35 PM 76.1 °F - 64.4 °F 67% 29.98 in 10.0 mi SW 8.1 mph - N/A   Clear
7:55 PM 74.8 °F - 64.6 °F 70% 29.98 in 10.0 mi SSW 3.5 mph - N/A   Clear
8:15 PM 73.9 °F - 64.8 °F 73% 29.98 in 10.0 mi SSW 5.8 mph - N/A   Clear
8:35 PM 73.6 °F - 65.1 °F 75% 29.98 in 10.0 mi South 4.6 mph - N/A   Clear
8:55 PM 72.7 °F - 64.9 °F 77% 29.98 in 10.0 mi SSW 3.5 mph - N/A   Clear
9:15 PM 71.6 °F - 64.6 °F 78% 29.98 in 10.0 mi SW 3.5 mph - N/A   Clear
9:35 PM 70.7 °F - 64.4 °F 80% 29.98 in 10.0 mi Calm Calm - N/A   Clear
9:55 PM 70.5 °F - 64.4 °F 81% 29.99 in 10.0 mi Calm Calm - N/A   Scattered Clouds
10:15 PM 70.3 °F - 64.8 °F 82% 30.00 in 10.0 mi WSW 3.5 mph - N/A   Mostly Cloudy
10:35 PM 70.3 °F - 64.8 °F 82% 29.99 in 10.0 mi SSW 3.5 mph - N/A   Mostly Cloudy
10:55 PM 70.2 °F - 64.9 °F 83% 29.98 in 10.0 mi SSW 3.5 mph - N/A   Mostly Cloudy
11:15 PM 70.0 °F - 64.9 °F 84% 29.97 in 10.0 mi SSE 3.5 mph - N/A   Scattered Clouds
11:35 PM 69.6 °F - 64.8 °F 84% 29.97 in 7.0 mi SSE 3.5 mph - N/A Rain Light Rain
11:55 PM 69.3 °F - 64.8 °F 86% 29.96 in 7.0 mi SSE 4.6 mph - N/A Rain Rain